This demonstration page uses our WeatherBlox Daily Observations layout. Learn more.

41.55636, -103.73856

Hourly Observations for November 23, 2020

Temp ( °F °C ) Dew Point ( °F °C ) Humidity (%) Winds ( mph kmh ) Pressure ( in mb ) Visibility ( mi km ) Precip ( " mm )
12:58 am 00:58 Mostly Cloudy 34 1.2 10 -12.4 36 36 SW 6 9 29.96 1015 10 16.0934 0 0
1:58 am 01:58 Mostly Cloudy 34 1.3 10 -12.1 36 36 SSW 20 31 29.92 1013 10 16.0934 0 0
2:58 am 02:58 Mostly Cloudy 34 0.9 11 -11.7 39 39 SW 18 30 29.91 1013 10 16.0934 0 0
3:58 am 03:58 Mostly Cloudy 34 1.3 11 -11.4 39 39 SW 14 22 29.89 1012 10 16.0934 0 0
4:58 am 04:58 Mostly Cloudy 35 1.4 11 -11.6 38 38 SSW 15 24 29.88 1012 10 16.0934 0 0
5:58 am 05:58 Clear 33 0.3 11 -11.5 41 41 SW 15 24 29.88 1012 10 16.0934 0 0
6:58 am 06:58 Sunny 34 1 11 -11.9 38 38 SSW 15 24 29.86 1011 10 16.0934 0 0
7:58 am 07:58 Sunny 38 3.6 15 -9.4 38 38 SW 8 13 29.85 1011 10 16.0934 0 0
8:58 am 08:58 Sunny 40 4.6 18 -7.8 41 41 Calm 29.84 1011 10 16.0934 0 0
9:58 am 09:58 Sunny 53 11.7 23 -5 31 31 SW 14 22 29.78 1008 10 16.0934 0 0
10:58 am 10:58 Sunny 59 14.8 27 -3 29 29 SSW 8 13 29.74 1007 10 16.0934 0 0
11:58 am 11:58 Sunny 57 13.7 22 -5.5 26 26 E 10 17 29.71 1006 10 16.0934 0 0
12:58 pm 12:58 Partly Cloudy 61 15.9 23 -4.8 24 24 E 12 19 29.67 1005 10 16.0934 0 0
1:58 pm 13:58 Partly Cloudy 58 14.5 23 -5.2 25 25 E 14 22 29.68 1005 10 16.0934 0 0
2:58 pm 14:58 Mostly Sunny 55 12.6 22 -5.3 29 29 NNE 13 20 29.69 1006 10 16.0934 0 0
3:58 pm 15:58 Mostly Sunny 49 9.2 22 -5.6 35 35 E 12 19 29.74 1007 10 16.0934 0 0
4:58 pm 16:58 Mostly Cloudy 47 8.4 24 -4.2 41 41 ESE 12 19 29.74 1007 10 16.0934 0 0
5:58 pm 17:58 Mostly Cloudy 45 7.4 25 -4.1 44 44 Calm 29.77 1008 10 16.0934 0 0
6:58 pm 18:58 Mostly Clear 39 4.1 24 -4.3 55 55 Calm 29.81 1010 10 16.0934 0 0
7:58 pm 19:58 Clear 43 6.3 26 -3.6 50 50 NNE 5 7 29.79 1009 10 16.0934 0 0
8:58 pm 20:58 Mostly Clear 41 5 28 -2 61 61 E 3 6 29.79 1009 10 16.0934 0 0
9:58 pm 21:58 Mostly Cloudy 39 3.7 31 -0.5 74 74 N 7 11 29.76 1008 10 16.0934 0 0
10:58 pm 22:58 Mostly Cloudy 40 4.2 32 0 74 74 ENE 10 17 29.77 1008 10 16.0934 0 0
11:58 pm 23:58 Mostly Cloudy 38 3.3 28 -2.2 68 68 NNE 8 13 29.78 1009 10 16.0934 0 0

Powered by AerisWeather